SCP
0 0 0 0 1 1 0 0 1 1 2 2 3 4 5 5 4 4 5 7 8 9 9 9 9 9 9 10 9 9 10 10 11 12 12 12 11 10 8 6 5 6 6 6
0 0 0 0 1 1 1 1 1 2 3 5 6 7 7 6 5 5 7 8 9 9 10 10 10 9 9 9 9 9 9 9 10 10 10 9 9 7 6 5 5 6 6 7
1 0 0 0 1 1 1 1 2 3 4 6 9 10 10 10 11 12 12 11 10 10 10 11 12 11 10 10 10 9 8 8 8 9 8 8 6 6 5 5 5 5 6 7
1 0 0 0 1 1 1 1 2 3 4 6 7 8 11 14 16 16 15 13 12 10 10 12 13 12 11 10 11 10 8 8 8 8 8 7 7 6 6 6 5 5 6 6
1 0 0 1 1 1 2 2 2 3 5 5 5 5 8 10 12 13 14 14 13 10 10 12 14 13 12 12 12 11 9 9 9 9 8 8 7 7 7 6 6 5 5 5
1 1 1 1 1 2 2 2 3 4 5 5 4 4 5 7 8 11 14 15 12 10 10 11 13 12 12 12 13 13 12 12 11 10 9 8 8 8 7 7 6 6 5 5
1 1 1 1 2 2 3 4 4 5 5 5 5 6 7 10 12 11 11 11 10 8 8 9 11 11 11 12 14 15 15 13 12 10 8 7 8 8 6 6 6 6 6 6
1 1 1 2 2 4 5 6 5 5 5 6 7 8 9 11 11 8 7 7 7 7 7 8 10 11 12 13 14 14 13 12 11 9 6 6 7 7 7 6 5 5 6 6
2 2 2 2 3 4 6 6 5 5 5 6 6 6 6 7 7 5 5 5 6 6 7 8 10 11 12 13 14 12 11 10 9 8 7 7 8 8 7 6 5 5 5 5
2 3 3 3 3 4 6 5 4 3 4 5 5 4 4 4 4 4 5 5 5 6 6 7 8 9 10 11 12 11 11 10 10 9 9 10 9 8 6 5 4 4 5 5
2 2 2 2 2 3 5 5 3 3 4 4 4 3 3 3 4 5 5 6 6 6 6 6 7 8 9 10 12 13 14 14 12 11 12 12 9 6 4 3 3 3 4 4
2 2 2 2 2 3 4 4 4 4 4 4 4 4 3 3 5 6 7 8 8 7 7 7 7 8 9 10 13 15 17 16 13 12 13 11 7 4 2 1 1 1 1 1
2 2 2 2 3 3 4 4 4 4 4 4 4 4 4 4 6 7 9 9 9 9 9 8 8 8 9 10 12 14 15 14 12 12 11 9 5 2 1 1 0 0 0 0
2 2 2 2 2 3 3 3 4 4 3 3 3 3 3 4 6 9 10 11 10 10 10 10 9 8 9 10 11 12 12 11 10 9 7 5 3 2 2 2 1 1 1 0
1 2 2 2 2 2 2 2 2 3 3 4 3 2 3 6 8 11 13 12 10 10 10 10 9 8 8 10 11 11 9 8 8 7 4 3 2 1 1 1 1 2 2 1
1 1 2 2 2 1 1 2 2 2 3 5 5 4 5 8 10 12 12 11 9 8 8 8 7 6 6 7 8 7 5 4 5 4 3 2 1 1 1 1 1 2 2 2
1 1 1 2 3 3 3 2 2 2 3 4 6 7 7 8 8 8 8 7 7 7 6 6 5 4 4 4 4 3 2 2 2 2 1 1 1 0 0 0 1 1 1 2
1 1 1 1 3 6 6 3 2 2 3 4 6 7 6 6 5 4 5 5 5 5 5 5 4 3 3 3 2 2 1 1 1 1 1 1 1 1 0 0 0 0 1 1
2 2 2 2 3 6 7 6 4 4 5 5 5 5 5 5 4 3 3 3 4 4 4 4 3 3 3 2 2 1 1 1 1 1 1 1 1 1 0 0 0 0 1 1
2 2 2 2 2 4 6 7 6 5 6 6 5 4 4 4 4 3 3 3 3 4 4 4 3 3 3 2 1 1 1 1 1 1 1 1 1 1 1 0 0 0 1 1
1 1 1 1 2 3 4 6 7 6 6 5 4 3 3 3 4 4 4 3 4 4 4 3 3 2 2 1 1 1 1 1 1 1 1 1 1 1 1 0 0 0 1 1
0 0 0 1 1 2 3 4 5 5 4 3 3 2 2 2 3 4 4 4 4 3 3 2 2 1 1 1 1 1 1 1 1 1 1 1 1 1 0 0 0 0 1 1
0 0 0 1 1 1 2 3 3 3 3 3 2 2 2 2 2 3 3 3 3 2 2 2 1 1 1 1 1 0 0 0 1 1 1 1 0 0 0 0 0 1 1 2
0 1 1 0 0 1 1 1 2 2 2 2 2 2 2 2 2 1 2 2 2 2 2 1 0 0 0 1 1 0 0 0 1 1 0 0 0 0 0 0 0 1 1 1
1 1 1 1 1 1 1 1 1 2 2 1 2 2 2 1 1 1 1 1 1 1 1 1 0 0 0 1 0 0 0 0 0 0 0 0 0 0 0 0 0 0 1 1
1 1 1 1 1 1 1 1 1 1 1 1 1 1 1 1 1 1 1 1 1 1 1 1 0 0 0 0 0 0 0 0 0 0 0 0 0 0 0 0 0 0 0 0
1 1 1 1 1 1 1 1 1 0 1 1 1 1 1 1 1 1 1 0 0 1 1 1 0 0 0 0 0 0 0 0 0 0 0 0 0 0 0 0 0 0 0 0
Wind_Speed
13 14 12 12 14 14 12 11 11 9 6 3 2 2 3 3 2 2 2 3 4 4 4 4 4 3 3 3 3 3 4 4 4 3 2 2 2 2 2 2 2 1 1 1
13 15 14 14 14 13 12 10 10 9 6 1 4 3 2 3 3 2 2 3 3 4 5 4 4 3 3 3 3 2 3 3 4 3 3 2 2 2 2 1 1 1 1 1
13 14 14 15 11 10 9 8 8 8 3 3 3 2 1 1 3 2 2 3 2 2 3 3 3 2 3 3 3 2 3 3 4 4 4 3 3 2 2 1 1 1 1 1
11 12 14 7 5 6 7 5 5 3 1 1 1 2 1 3 4 3 3 3 2 2 3 3 2 2 2 3 3 3 3 3 3 3 3 3 3 2 2 2 2 1 1 1
8 11 10 8 5 5 5 4 4 2 1 2 2 2 4 5 4 3 3 3 2 2 2 3 3 2 2 3 3 2 3 3 3 3 3 3 3 3 2 2 1 1 1 1
9 10 8 4 7 7 6 4 1 1 0 1 2 1 1 3 4 4 4 3 2 2 2 2 2 2 3 3 3 2 2 2 2 2 2 3 3 2 2 2 2 1 1 1
11 10 5 5 8 7 5 3 6 4 3 1 2 2 2 3 4 3 3 2 2 2 1 2 2 2 2 2 2 2 1 2 2 1 1 2 2 2 1 1 1 1 1 1
7 8 4 6 6 4 3 6 7 7 6 4 5 4 3 3 3 2 1 1 2 2 1 1 2 2 2 2 1 1 2 2 1 1 1 1 2 2 1 1 1 1 1 1
3 3 2 3 4 3 5 5 6 6 6 2 2 2 2 2 2 2 2 1 1 2 2 1 1 1 2 2 2 1 1 2 1 1 1 1 2 2 2 2 2 2 2 1
4 4 3 3 4 4 5 5 6 6 6 3 2 1 0 1 1 1 1 2 1 2 2 1 1 1 2 2 1 1 1 1 1 1 1 1 1 1 1 1 1 1 1 0
5 6 5 4 5 6 5 5 5 4 5 4 1 1 1 1 2 1 1 1 1 1 1 1 1 1 2 2 2 2 1 1 1 1 2 1 1 1 1 1 1 0 1 1
4 5 6 6 7 7 7 6 6 5 5 3 1 1 1 1 1 2 2 2 1 1 1 1 1 1 1 2 2 2 2 1 1 1 1 2 2 1 3 2 3 3 3 2
4 6 7 9 8 7 8 7 6 5 4 3 2 1 1 1 2 2 2 2 1 1 1 1 1 1 1 1 2 2 1 1 2 1 2 2 2 2 2 1 1 1 2 3
5 5 7 7 7 7 7 6 6 5 3 2 2 2 1 1 2 2 2 1 1 1 1 1 2 1 1 2 2 2 2 2 2 1 2 2 2 2 2 2 2 1 2 3
5 5 6 6 6 6 5 4 5 4 2 2 1 1 0 1 2 2 1 1 1 1 1 1 1 1 1 1 2 2 2 1 1 2 2 2 2 2 2 2 2 1 2 2
6 5 5 6 6 6 5 4 4 3 2 2 2 1 1 1 2 1 1 2 1 1 1 1 1 1 1 2 2 2 1 2 3 3 2 2 3 3 2 2 2 2 2 1
6 5 5 6 7 6 5 5 5 3 1 1 1 1 1 2 2 2 1 1 1 0 1 0 0 0 1 1 2 2 2 2 3 3 3 2 3 2 2 2 2 2 2 2
5 5 5 6 6 7 6 5 5 3 1 1 0 0 1 1 1 1 1 1 1 1 1 1 1 1 1 2 2 2 2 2 3 2 2 2 3 3 2 2 2 3 2 3
5 5 6 6 6 6 6 4 3 2 2 1 1 1 1 1 1 1 2 2 2 2 1 0 0 1 1 1 3 3 3 3 2 2 2 2 3 4 3 2 3 3 2 2
5 5 5 5 6 5 4 3 3 2 2 1 1 1 1 0 1 2 2 2 1 1 1 1 1 1 1 1 3 4 3 3 2 2 2 2 3 3 2 2 2 1 1 1
5 6 5 5 5 4 3 2 2 2 1 0 1 0 0 1 1 2 2 2 1 1 2 2 2 1 1 2 4 4 3 2 2 2 1 2 2 2 1 1 1 1 1 1
5 6 5 4 4 4 3 2 1 1 1 1 1 1 1 1 1 1 1 1 2 2 2 3 2 1 1 3 4 3 3 2 2 1 1 2 2 2 2 2 2 2 1 1
4 4 5 5 4 4 3 2 1 1 1 0 0 0 0 1 1 1 1 1 2 2 2 1 2 3 1 3 3 3 2 2 2 2 2 2 2 2 2 2 2 2 1 1
4 3 4 4 3 3 3 2 1 1 1 0 0 1 1 1 1 1 1 2 3 3 2 3 4 3 2 3 3 2 2 3 3 3 2 2 2 3 2 2 2 1 2 2
4 4 4 4 4 2 1 1 0 1 1 0 1 2 2 1 1 1 1 2 3 3 2 4 5 5 3 3 3 3 3 3 3 3 3 2 2 2 1 1 1 0 0 0
4 3 3 3 3 2 1 1 1 1 1 1 1 2 1 1 2 2 1 2 2 2 1 2 3 4 4 4 4 3 2 2 2 3 2 2 2 1 1 0 1 1 1 0
3 3 2 2 2 2 2 1 1 1 1 2 2 1 1 1 1 1 1 1 1 2 2 2 3 4 4 3 2 1 1 1 2 2 1 1 1 1 1 0 1 1 1 1
Wind_Direction
273 281 283 280 279 271 260 263 266 271 260 207 146 143 138 137 141 122 118 119 123 125 126 131 137 140 145 149 146 148 152 149 148 149 142 145 158 166 172 191 191 187 192 204
277 272 273 270 271 275 267 261 262 272 281 340 125 101 129 153 139 123 117 123 122 132 131 136 136 150 154 123 118 135 151 150 146 153 159 159 163 166 166 166 167 188 200 196
274 272 273 263 263 264 274 275 269 265 288 10 57 75 31 96 118 111 97 94 106 121 134 131 132 138 131 133 132 151 156 159 161 164 170 171 175 173 169 170 200 220 207 152
269 269 262 269 289 278 274 289 291 282 4 39 51 89 42 96 106 91 89 90 92 94 104 114 114 110 141 147 138 155 160 168 166 166 172 171 173 178 182 186 206 226 217 186
267 265 259 270 297 295 282 278 307 313 20 344 32 65 63 59 70 72 81 87 83 87 113 114 126 131 152 151 149 148 157 167 162 170 174 173 174 179 187 187 208 232 226 196
259 269 270 305 331 328 288 250 338 336 19 293 310 286 79 53 55 65 74 78 80 80 113 122 130 148 168 161 145 147 156 160 155 161 174 169 161 172 178 185 213 227 227 203
255 261 262 312 325 319 281 319 350 2 353 355 359 15 93 86 69 67 71 77 93 106 125 135 147 166 167 163 165 169 165 150 134 126 159 154 140 152 182 204 206 216 223 200
263 263 267 352 340 353 350 349 2 8 8 34 65 65 82 86 91 95 90 103 119 120 135 148 157 172 165 166 170 175 170 152 143 148 196 155 137 160 195 185 185 222 229 221
270 272 28 5 336 340 345 345 351 350 352 11 88 80 89 91 109 134 145 136 125 143 143 150 153 171 174 153 150 166 171 160 160 168 164 169 177 183 201 187 213 220 220 225
283 279 308 308 313 330 334 330 336 339 326 331 20 22 42 125 109 103 121 130 127 139 148 150 155 171 150 142 149 165 180 174 178 168 170 184 189 202 199 211 241 224 214 228
285 297 309 305 321 323 316 320 322 321 311 318 356 305 265 143 133 134 119 115 117 115 155 174 152 137 157 155 153 159 180 180 199 194 173 133 64 30 49 39 31 65 14 23
296 318 308 307 316 323 326 325 320 320 324 320 317 231 228 186 156 153 142 126 118 127 135 171 185 173 155 156 162 169 198 191 217 206 174 170 156 96 44 78 106 112 116 120
317 321 314 310 317 321 315 320 319 324 320 321 323 290 244 194 161 155 143 140 158 187 168 178 187 179 180 172 183 176 210 217 231 220 206 207 200 182 158 110 93 115 154 154
324 316 302 300 309 312 312 319 321 321 310 316 303 285 251 164 152 148 144 156 183 176 168 190 199 182 190 167 191 193 215 217 231 232 237 228 215 213 200 189 192 192 194 195
307 305 306 314 316 314 313 318 310 305 321 329 327 327 348 152 151 145 133 136 127 152 167 174 191 149 164 188 199 214 228 235 241 251 248 240 234 232 223 209 211 201 162 187
308 316 320 322 318 308 309 319 315 305 336 342 343 354 50 100 109 114 124 140 161 193 163 154 169 170 207 213 210 218 227 244 249 251 242 241 244 239 228 224 220 214 212 186
310 312 316 315 310 305 314 317 298 285 309 323 332 26 131 141 145 142 142 156 174 165 117 113 139 154 232 246 240 235 224 222 240 251 250 254 263 254 245 237 235 233 218 173
289 296 300 300 305 307 309 306 297 306 304 294 82 91 117 117 120 135 152 180 172 144 142 155 159 224 251 253 265 258 244 234 235 252 266 269 274 268 253 241 237 230 218 181
295 296 296 302 307 309 308 311 318 343 18 41 70 100 100 128 157 176 181 181 180 168 153 100 219 222 231 269 282 254 240 231 231 241 250 254 263 266 258 245 238 238 217 194
318 313 301 300 304 307 310 340 358 11 35 65 71 66 47 107 184 205 207 198 208 187 156 145 213 248 265 278 292 272 256 251 240 242 245 246 253 259 257 256 252 240 232 209
321 319 318 319 316 313 329 344 356 357 345 89 130 149 250 259 220 224 221 203 192 177 187 200 221 232 266 297 271 264 260 271 271 253 250 254 262 272 282 291 278 262 244 240
321 318 321 330 329 323 339 344 322 290 265 238 234 218 222 254 240 234 230 216 172 151 193 204 201 127 313 281 259 256 264 276 281 261 245 244 251 260 263 260 250 242 219 194
314 316 324 327 321 321 330 329 321 315 311 272 237 252 243 273 256 234 219 213 184 181 219 179 118 107 339 270 272 272 279 281 281 271 250 238 238 242 244 245 248 243 210 185
321 321 324 322 320 316 315 325 349 347 326 327 16 304 268 229 236 235 208 182 175 188 197 140 149 163 224 265 271 265 265 268 276 279 269 260 248 241 237 229 233 224 205 202
326 326 328 320 313 312 312 321 302 268 272 201 215 267 260 230 232 230 181 155 150 172 175 173 178 187 225 260 269 266 267 274 283 290 280 277 278 264 254 246 226 212 261 206
325 320 321 315 323 313 285 272 257 242 262 252 220 234 238 221 219 204 171 174 185 196 210 195 198 205 232 246 256 262 271 264 260 265 277 283 279 279 264 221 121 113 98 89
312 313 306 300 307 306 299 289 288 279 266 257 254 250 242 222 212 197 168 166 195 216 220 218 218 219 230 246 257 274 286 285 292 304 304 304 299 312 327 71 135 152 193 202